This is the latest recevied weather packets stored in our database for station/object AB1AU. If no packets are shown the sender has not sent any weather packets the latest 1 day(s).
| Time | Temp. | Humidity | Pressure | Rain* | Wind** | Luminosity | Snow |
|---|---|---|---|---|---|---|---|
| 1777997103 | 22.22° C | 46% | 1006.8 hPa | 0 mm | 1.79 m/s, 228° | 312 W/m² | - |
| 1777996800 | 22.22° C | 47% | 1006.9 hPa | 0 mm | 0 m/s | 358 W/m² | - |
| 1777996496 | 21.67° C | 48% | 1007.1 hPa | 0 mm | 0.45 m/s, 229° | 552 W/m² | - |
| 1777996193 | 21.67° C | 47% | 1007.3 hPa | 0 mm | 2.24 m/s, 155° | 302 W/m² | - |
| 1777995889 | 21.67° C | 48% | 1007.5 hPa | 0 mm | 1.79 m/s, 162° | 331 W/m² | - |
| 1777995585 | 21.11° C | 48% | 1007.6 hPa | 0 mm | 1.79 m/s, 163° | 199 W/m² | - |
| 1777995283 | 21.67° C | 48% | 1007.6 hPa | 0 mm | 1.79 m/s, 151° | 230 W/m² | - |
| 1777994979 | 21.11° C | 49% | 1007.6 hPa | 0 mm | 0.89 m/s, 147° | 149 W/m² | - |
| 1777994677 | 20.56° C | 49% | 1007.6 hPa | 0 mm | 1.79 m/s, 184° | 138 W/m² | - |
| 1777994378 | 20.56° C | 49% | 1008 hPa | 0 mm | 1.34 m/s, 156° | 373 W/m² | - |
| 1777994073 | 20.56° C | 50% | 1007.7 hPa | 0 mm | 0.89 m/s, 194° | 193 W/m² | - |
| 1777993771 | 20.56° C | 49% | 1007.7 hPa | 0 mm | 1.34 m/s, 156° | 218 W/m² | - |
| 1777993468 | 20.56° C | 50% | 1007.6 hPa | 0 mm | 0.45 m/s, 247° | 172 W/m² | - |
| 1777993167 | 20.56° C | 49% | 1007.7 hPa | 0 mm | 1.79 m/s, 189° | 281 W/m² | - |
| 1777992866 | 20.56° C | 48% | 1007.9 hPa | 0 mm | 1.79 m/s, 158° | 170 W/m² | - |
| 1777992563 | 20.56° C | 48% | 1007.7 hPa | 0 mm | 2.24 m/s, 148° | 183 W/m² | - |
| 1777992261 | 20° C | 49% | 1007.7 hPa | 0 mm | 0.89 m/s, 155° | 384 W/m² | - |
| 1777991959 | 20.56° C | 48% | 1007.6 hPa | 0 mm | 0.89 m/s, 166° | 283 W/m² | - |
| 1777991656 | 20° C | 49% | 1007.6 hPa | 0 mm | 0 m/s | 292 W/m² | - |
| 1777991353 | 20° C | 49% | 1007.6 hPa | 0 mm | 2.24 m/s, 232° | 265 W/m² | - |
| 1777991050 | 19.44° C | 49% | 1007.8 hPa | 0 mm | 0.89 m/s, 165° | 318 W/m² | - |
| 1777990747 | 19.44° C | 50% | 1007.5 hPa | 0 mm | 1.79 m/s, 145° | 218 W/m² | - |
| 1777990445 | 19.44° C | 52% | 1007.7 hPa | 0 mm | 1.34 m/s, 153° | 465 W/m² | - |
| 1777990141 | 19.44° C | 50% | 1008.1 hPa | 0 mm | 3.13 m/s, 148° | 364 W/m² | - |
| 1777989838 | 18.89° C | 52% | 1008 hPa | 0 mm | 0.45 m/s, 49° | 186 W/m² | - |
* Rain latest hour (hover to see other rain measurements)
** Current wind speed in m/s (hover to see current wind gust speed)